Theta_e
305 305 305 306 306 305 304 304 304 303 302 304 302 306 302 300 298 308 307 309 307 302 295 295 292 291 292 295 295 295 295 294 295 293 296 294 295 295 294 292 291 294 292 291 289 289 285 290 290 292 294 294 296 299 297 300 298 296 294 294 295 294 288 285 286 289 291 294 294 295 295 293 290 291 291 290 286 288 286 284 285 282 283 282 282 278 283
305 305 305 305 305 305 304 304 304 303 302 303 305 304 300 300 300 303 306 309 308 296 287 288 289 292 295 295 294 296 294 293 292 292 294 293 294 293 290 292 296 292 295 292 287 290 283 293 293 291 295 293 302 300 299 299 295 294 294 291 296 287 289 286 282 283 285 288 289 289 292 292 289 288 290 290 291 290 289 289 289 282 283 284 281 276 282
305 305 305 305 305 305 304 304 304 303 303 304 305 300 299 301 303 300 302 306 303 294 294 291 289 291 291 292 291 292 295 295 293 292 292 294 293 294 288 290 293 292 296 291 291 291 289 288 294 294 294 295 299 299 298 299 297 297 297 296 299 290 289 286 280 277 275 275 277 279 282 286 289 290 289 290 289 289 287 282 284 280 284 285 281 280 287
305 305 305 305 305 305 304 304 303 303 303 302 307 303 301 298 291 299 300 302 300 298 299 296 293 290 289 288 291 293 291 293 293 292 292 293 294 294 294 291 294 291 289 286 288 286 292 291 288 290 291 294 297 299 299 298 298 299 298 298 298 291 292 289 286 283 281 283 286 290 290 288 284 287 288 289 291 291 290 288 284 281 284 282 285 285 286
305 304 305 305 305 305 304 304 303 302 302 302 303 305 300 299 293 292 290 297 298 294 296 294 294 288 292 287 291 290 291 292 293 293 291 294 293 293 292 290 285 284 284 285 285 287 286 293 292 291 292 295 297 299 299 299 298 298 297 299 296 291 288 289 289 287 287 288 288 290 289 286 287 287 287 289 289 289 289 284 283 289 285 280 287 289 286
305 304 305 305 305 305 305 304 303 302 302 302 306 299 299 294 295 298 296 290 289 290 291 293 293 293 292 290 292 290 290 291 287 292 293 293 294 289 294 294 292 289 284 284 283 289 289 290 287 293 294 293 296 295 299 297 299 298 298 300 295 291 286 290 290 288 289 289 288 289 288 288 288 288 288 288 289 289 287 287 289 290 284 282 289 291 289
305 304 304 305 305 305 305 305 303 302 301 303 306 298 299 298 297 297 298 292 295 293 293 294 293 293 292 290 290 288 290 288 290 289 289 291 292 293 286 288 290 287 290 285 284 287 287 286 292 291 291 292 292 292 295 297 298 298 297 296 297 293 288 290 290 288 289 289 289 290 288 287 287 287 288 289 289 289 289 289 290 289 288 290 290 291 291
305 304 305 305 305 305 305 305 303 302 301 305 304 299 297 293 293 293 297 297 295 295 294 293 293 292 291 287 291 289 288 286 291 291 289 286 291 293 290 291 292 293 292 289 284 285 288 287 285 293 292 290 291 291 293 294 297 297 295 295 296 292 287 291 288 286 286 288 289 288 288 287 286 288 289 289 290 290 290 291 291 291 289 290 291 290 289
305 305 305 305 305 305 305 305 304 302 302 303 301 298 299 299 300 298 292 292 295 295 295 293 291 290 292 289 291 290 291 289 291 290 292 290 290 293 290 292 292 293 292 288 286 288 291 293 294 295 293 288 294 290 293 297 294 295 295 295 295 294 288 291 288 283 283 287 288 288 288 288 286 286 288 288 289 288 290 288 292 290 288 290 290 288 288
305 305 305 305 305 305 305 305 303 302 302 302 301 296 301 301 300 299 295 290 293 293 295 294 293 289 291 289 290 289 290 291 290 287 292 293 294 294 292 293 291 292 291 291 295 296 296 295 296 296 296 297 296 296 295 295 293 293 294 297 292 291 289 286 286 283 283 288 288 286 286 285 283 286 288 289 290 291 292 294 294 294 293 289 285 287 294
305 305 305 305 305 305 305 305 303 303 303 298 298 297 298 295 295 296 296 290 293 293 293 293 291 291 292 292 291 292 292 292 291 286 287 293 293 295 294 293 291 290 291 294 299 298 298 298 298 298 297 297 296 296 296 296 296 295 294 293 292 291 289 286 290 282 284 287 287 286 283 278 280 290 291 292 288 290 288 290 293 295 294 291 294 294 297
305 305 305 305 305 305 305 305 303 302 302 302 302 298 299 299 297 297 294 289 290 294 292 291 291 292 291 292 292 291 291 292 291 293 289 291 293 295 294 293 293 287 296 299 299 299 299 300 300 300 299 298 298 298 297 296 297 299 294 292 289 288 289 287 289 284 283 287 287 282 277 280 290 293 294 294 293 292 289 291 292 294 296 296 295 296 297
305 305 305 304 305 304 305 305 303 302 303 303 301 296 299 300 297 294 292 290 289 293 291 292 295 293 293 293 292 292 293 293 293 294 293 292 292 293 295 293 293 294 299 297 297 297 295 296 298 299 298 298 299 298 297 297 297 299 298 292 291 288 288 287 286 287 287 285 284 276 280 290 293 292 293 295 294 289 288 288 292 293 295 295 295 297 299
306 305 305 304 304 304 304 305 303 302 302 303 300 298 299 299 295 295 293 288 288 294 294 293 294 292 292 292 292 293 293 293 294 295 292 295 293 293 295 296 297 299 298 298 296 297 294 295 291 294 294 295 295 293 296 297 297 297 296 294 293 291 291 288 285 290 281 284 284 284 292 290 291 289 291 291 287 287 286 283 288 294 296 296 296 298 299
306 305 305 304 304 304 304 304 304 302 302 302 302 300 299 299 298 295 295 293 287 290 293 289 291 291 291 292 293 291 292 292 291 292 295 296 294 295 295 297 299 298 299 296 295 297 293 292 288 287 289 288 284 286 295 292 296 298 298 298 294 294 289 291 285 285 288 283 282 285 284 281 286 293 297 298 297 295 293 288 284 293 294 293 293 293 297
306 305 305 305 304 304 304 304 304 303 302 302 302 299 299 301 301 298 296 292 289 286 292 294 294 292 290 291 294 291 289 289 290 292 293 295 294 296 297 298 299 300 298 296 296 293 291 288 286 286 284 286 291 289 287 292 290 295 299 299 299 298 296 293 287 285 286 285 282 281 280 284 292 293 296 299 300 298 296 287 283 292 294 295 295 293 295
306 306 305 305 304 304 304 304 304 304 304 303 301 299 297 301 299 296 294 293 291 286 294 295 295 294 292 292 294 292 292 288 290 287 286 290 292 293 296 298 300 299 297 295 296 292 289 288 291 290 291 292 287 286 292 290 288 290 295 298 297 295 292 291 287 286 287 286 284 283 286 285 292 296 297 300 300 300 292 280 284 291 293 294 294 293 294
306 306 305 305 304 304 304 304 304 304 304 302 301 299 298 302 301 299 294 292 289 288 293 296 292 290 290 291 290 293 294 293 292 293 290 292 293 294 293 295 293 297 299 293 293 290 288 288 285 285 285 293 293 293 283 289 286 287 289 290 291 289 290 291 286 289 288 286 286 288 288 294 297 298 299 300 302 298 285 279 287 297 299 300 298 295 296
306 305 305 305 304 304 304 304 305 304 304 302 303 301 299 301 301 300 295 291 290 286 293 296 297 294 296 296 294 295 294 292 291 287 288 289 292 295 294 294 295 290 296 291 294 289 287 288 293 290 286 289 293 285 291 287 286 292 291 288 288 289 288 289 290 287 286 287 285 286 289 294 299 300 298 301 295 285 281 292 300 300 299 301 302 300 302
306 305 305 305 305 304 304 304 304 305 304 302 302 298 299 301 302 300 294 289 290 288 291 293 294 292 295 293 291 292 293 293 293 290 290 286 295 294 292 290 295 295 293 295 288 291 288 285 288 291 288 288 291 292 290 290 293 290 290 291 288 287 285 285 286 288 289 288 285 284 280 290 300 298 296 298 286 289 298 300 301 302 301 300 301 302 303
305 305 305 305 305 304 304 304 305 305 304 302 302 300 298 302 302 301 300 296 290 285 289 297 296 295 295 294 296 295 294 291 293 292 294 292 295 291 286 285 290 291 289 289 286 287 288 286 289 288 291 290 291 292 286 287 290 296 293 291 291 293 286 286 287 291 284 283 282 282 289 297 302 297 287 294 297 300 301 300 298 302 301 300 301 302 304
306 306 306 305 305 305 304 304 304 305 305 303 302 302 297 300 302 302 301 299 292 288 291 295 297 296 297 298 298 299 297 296 297 298 293 291 295 293 292 293 292 292 294 295 293 290 293 292 292 288 287 289 294 288 290 286 284 290 296 295 285 294 290 291 286 293 287 284 288 295 298 299 299 299 297 299 302 303 302 302 301 300 300 303 301 302 303
306 306 306 305 305 305 305 304 304 304 304 303 302 301 297 298 300 303 301 294 295 295 297 297 298 298 299 299 301 302 302 302 301 300 298 293 290 294 293 293 293 297 296 296 292 291 292 291 288 292 289 291 288 287 291 290 287 291 288 295 294 297 298 299 296 292 296 297 296 299 299 298 297 299 300 300 302 303 302 302 300 301 302 303 301 302 302
306 306 305 306 306 305 305 304 304 304 304 304 303 301 299 300 300 300 298 296 292 288 291 295 293 290 295 295 299 302 302 301 301 302 303 300 290 291 296 297 297 296 296 297 300 293 292 291 292 293 286 292 293 288 286 285 287 293 291 291 295 298 298 296 292 294 290 287 297 297 296 297 298 299 301 302 303 302 302 302 302 301 302 303 304 303 303
306 306 305 305 306 305 305 305 304 304 304 305 303 303 303 300 301 300 294 287 289 288 283 287 290 295 298 301 302 300 301 303 304 303 301 301 297 293 293 299 300 296 295 297 299 296 294 289 292 292 286 294 294 287 293 288 289 295 288 290 292 292 299 295 294 292 290 289 295 297 297 296 298 299 298 299 300 300 302 303 303 302 304 304 304 304 303
306 306 306 306 305 305 305 305 304 304 304 304 304 302 300 299 302 302 299 296 295 291 284 284 291 300 301 299 298 300 303 302 302 302 301 301 300 300 299 300 299 301 298 298 296 292 291 290 291 291 288 289 298 291 290 294 292 296 292 291 294 295 297 288 291 290 294 296 297 295 294 295 296 298 300 301 300 300 300 301 299 301 304 304 305 305 305
306 305 306 306 305 305 305 305 304 304 304 304 304 304 303 302 303 300 296 295 290 287 288 284 290 295 299 297 301 302 302 301 302 301 300 301 300 300 299 298 297 297 296 295 296 292 291 290 289 288 293 292 296 294 295 293 295 290 290 294 296 294 289 291 290 287 288 289 291 292 284 285 291 296 299 300 301 301 299 297 298 301 302 304 304 304 306
305 305 305 306 305 305 305 305 304 304 304 304 304 304 304 302 303 303 303 300 293 287 288 288 288 293 298 296 301 301 301 301 301 300 300 300 300 299 298 297 297 295 295 292 289 290 289 288 290 293 294 294 292 290 297 297 296 293 293 292 294 290 289 289 285 284 285 292 293 294 292 292 295 298 300 301 302 300 297 297 299 300 301 303 303 304 304
305 305 306 306 305 305 305 305 304 304 304 304 304 302 302 304 304 304 303 304 300 294 290 289 292 292 289 297 301 301 301 301 301 300 299 299 299 299 298 298 296 296 295 293 291 291 290 291 293 292 292 298 293 290 294 289 289 287 289 293 294 294 295 292 291 291 292 295 294 294 292 291 295 298 300 301 302 300 298 301 301 299 300 302 305 306 305
305 305 306 306 306 306 305 305 304 304 304 304 301 298 294 295 302 302 304 303 301 297 288 285 283 289 299 298 299 300 300 301 300 300 298 298 298 299 298 298 297 297 296 292 291 288 292 292 292 297 298 300 293 292 290 291 290 290 295 295 295 295 295 295 295 292 289 294 295 295 294 295 298 300 300 302 301 300 299 299 298 298 300 303 306 307 307
306 306 306 306 306 306 305 305 304 304 303 301 298 289 288 287 296 302 301 303 302 296 289 288 285 292 291 300 300 298 299 299 299 299 299 299 299 299 300 300 299 298 292 292 291 291 292 290 291 294 299 298 294 292 291 291 288 290 292 293 294 294 294 294 295 295 295 294 294 295 296 296 298 297 298 299 299 301 299 298 300 301 301 303 305 307 306
306 306 306 306 306 306 305 305 304 304 304 299 294 293 295 296 299 302 302 302 301 295 289 285 286 288 289 293 299 302 299 299 299 299 300 300 298 300 300 299 298 299 295 292 292 292 290 292 291 295 296 298 294 293 293 291 286 287 291 292 294 294 294 294 293 294 295 294 293 292 292 292 294 293 293 298 300 300 300 299 300 300 301 303 306 306 306
306 306 306 306 306 305 305 305 304 304 302 304 305 304 302 301 302 302 302 301 298 294 294 287 284 287 285 292 298 300 298 300 300 301 299 301 300 299 297 299 299 298 299 293 291 290 296 293 293 293 297 300 292 291 291 286 286 289 291 291 292 293 293 293 294 294 293 293 293 289 289 291 293 296 298 299 300 299 299 299 299 300 301 302 303 303 305
306 306 305 305 306 305 305 304 304 304 304 300 296 298 303 303 302 302 303 301 296 295 292 287 284 285 286 297 293 298 298 295 297 299 293 301 302 299 296 296 298 292 296 292 295 294 295 295 292 293 299 292 295 291 286 288 289 289 291 292 293 292 292 292 293 292 291 292 293 294 294 295 296 297 298 298 299 299 299 299 299 297 299 300 300 301 303
305 305 305 306 305 305 304 304 302 300 296 297 298 302 304 303 303 303 301 298 289 287 286 287 288 285 286 289 288 294 298 296 294 297 293 298 302 298 298 292 293 290 293 299 293 293 292 294 299 292 289 293 289 284 284 286 287 289 290 290 291 290 291 289 290 290 291 292 292 293 294 294 294 294 294 295 295 297 297 297 298 297 296 297 298 298 300
305 305 305 306 305 304 304 302 301 298 294 294 296 301 301 303 302 302 302 301 296 289 287 287 287 285 287 284 286 292 299 295 298 298 298 297 298 300 297 295 290 294 300 294 291 296 292 298 294 288 290 286 282 284 285 286 287 288 289 288 289 288 288 288 289 290 291 292 293 293 293 293 292 292 293 294 294 295 296 296 296 296 295 295 296 297 298
305 305 306 305 303 299 295 294 299 298 297 302 303 302 302 303 303 302 299 297 298 298 290 287 286 287 289 288 290 291 296 289 297 294 297 293 291 294 294 291 289 293 293 291 291 290 295 301 293 287 286 283 284 287 288 288 287 287 287 288 289 289 289 289 290 290 290 291 292 292 291 290 290 291 291 292 292 294 294 293 294 294 293 294 295 296 297
305 305 302 298 295 289 288 290 296 302 303 301 302 299 297 297 288 289 290 288 293 294 290 290 285 291 294 289 285 296 294 292 297 291 291 295 291 291 293 290 291 290 286 289 292 300 295 292 289 285 284 288 288 288 288 289 289 289 289 289 289 289 289 290 290 289 288 287 287 288 288 288 288 289 289 290 291 292 292 293 294 295 295 295 295 296 297
303 300 298 297 292 288 288 294 304 302 302 302 302 292 288 290 288 285 285 288 288 286 290 288 287 292 290 289 291 299 295 291 290 293 289 296 290 287 291 286 291 290 287 287 291 299 288 289 287 286 283 286 285 287 289 289 290 290 290 290 290 290 290 290 290 289 288 287 287 289 288 286 286 287 289 290 291 292 293 293 293 294 295 295 295 295 297
298 294 291 290 289 290 299 303 303 301 299 291 291 289 285 289 286 284 289 285 285 288 290 285 292 292 293 291 290 292 299 293 289 289 290 291 298 288 290 289 291 287 283 284 288 296 288 284 287 285 282 285 285 289 290 290 290 290 291 291 291 290 290 290 290 291 291 291 291 290 291 291 290 289 289 289 290 290 291 292 293 294 294 294 293 295 296
297 294 292 288 293 297 299 301 302 299 291 287 286 286 286 283 287 288 286 284 285 287 293 292 294 291 293 294 294 290 298 299 298 297 293 288 296 294 288 285 292 285 283 284 291 291 290 287 286 285 282 286 287 289 290 290 290 290 291 291 291 290 290 290 290 291 291 291 291 291 291 291 290 290 291 291 291 291 291 292 292 293 293 294 294 295 296
299 297 297 299 299 300 299 296 292 288 287 288 285 283 285 286 288 286 287 283 285 289 291 292 289 291 292 294 294 296 295 300 298 293 291 287 292 289 287 288 289 284 281 289 293 290 289 283 283 282 285 288 290 290 290 289 289 289 290 290 290 290 290 291 291 291 292 291 291 291 291 291 291 290 291 291 291 291 291 291 292 292 293 293 294 295 295
300 299 298 295 293 291 291 286 288 288 283 282 281 280 285 282 284 284 285 289 293 291 292 297 296 299 298 299 296 298 295 299 293 291 289 287 292 291 287 286 285 280 286 293 289 286 284 283 282 282 286 287 289 289 289 289 288 288 288 289 289 289 289 290 290 290 291 291 291 291 291 290 290 291 291 291 291 291 291 291 291 291 291 292 293 293 293
298 297 291 288 287 287 289 280 288 285 283 285 282 279 282 281 284 286 285 288 291 290 294 292 293 292 290 296 294 293 293 294 293 292 290 292 288 286 285 282 284 291 293 287 286 283 284 285 285 285 287 288 288 288 288 288 288 288 289 290 290 290 290 290 290 290 289 290 290 291 291 290 290 291 291 291 291 290 290 291 291 290 290 291 292 292 292
289 286 287 286 284 287 285 279 288 284 280 282 285 285 286 283 286 287 288 293 294 292 295 296 295 294 291 295 295 294 292 289 294 288 285 288 285 287 284 283 288 288 284 282 284 284 284 281 286 287 287 287 288 288 288 288 288 288 288 289 289 289 289 289 289 290 289 289 289 290 290 290 290 290 290 290 291 291 291 290 290 289 289 290 290 290 291
287 286 286 283 279 284 285 282 283 280 285 288 286 289 289 291 291 291 295 296 294 294 293 294 294 294 291 293 290 289 291 291 288 288 289 289 284 281 288 291 289 283 282 283 281 280 281 282 284 285 286 286 286 287 287 287 287 288 287 286 288 289 289 289 289 289 289 289 290 290 290 290 289 289 289 290 290 290 290 290 290 289 289 288 288 288 289
287 287 287 287 283 285 288 283 283 286 288 289 291 292 293 294 295 295 295 295 294 295 295 296 295 294 291 291 290 290 291 291 286 289 289 284 283 286 290 284 280 282 279 278 280 281 282 284 285 286 287 287 287 287 287 287 287 287 287 288 288 288 289 289 289 289 289 290 289 289 289 289 289 290 290 289 290 290 290 290 290 290 289 287 288 288 288
285 288 288 282 281 285 282 285 291 291 291 291 292 294 295 295 293 291 294 296 296 295 293 292 290 292 290 295 292 288 290 290 286 287 289 286 288 284 282 282 281 283 283 281 281 285 285 285 285 285 286 287 286 286 287 287 288 288 287 287 287 288 288 288 288 288 289 288 288 288 288 288 289 289 288 288 289 289 289 289 289 289 289 288 287 287 287
289 287 285 285 286 286 287 290 290 287 290 290 291 293 293 291 291 293 294 295 294 294 295 293 291 290 288 290 288 287 285 289 283 284 287 285 281 278 279 277 279 278 284 285 285 285 285 286 287 287 287 287 288 287 287 287 287 287 287 287 287 287 288 288 288 288 288 288 288 288 288 288 288 288 288 288 288 288 290 289 289 288 288 287 286 286 286
287 286 287 286 286 287 290 291 289 287 288 289 289 289 292 291 292 293 296 294 295 294 294 292 293 289 289 288 284 286 285 288 286 286 283 281 282 283 281 278 280 281 283 285 285 286 288 288 288 287 287 287 287 286 286 286 286 287 288 288 288 288 287 287 287 288 288 288 288 288 288 288 287 287 287 287 288 289 289 289 288 288 287 287 286 286 285
289 287 288 292 288 286 286 284 285 285 286 287 289 290 291 291 292 292 296 295 294 292 289 288 289 288 286 285 283 279 283 289 285 283 283 282 285 282 280 279 282 286 286 288 288 289 289 289 288 287 287 286 286 286 287 287 287 287 287 288 288 288 288 288 288 287 287 288 288 286 287 287 287 287 287 288 288 287 288 288 288 288 287 287 286 285 285
286 284 286 288 290 289 290 290 291 291 291 291 291 293 293 292 294 294 297 295 293 289 288 290 287 285 283 280 283 287 288 285 282 283 280 284 286 282 282 284 286 287 288 287 288 289 288 289 288 287 286 286 286 287 287 287 287 288 288 287 287 287 287 287 287 287 287 287 287 287 287 288 288 288 287 287 286 286 285 285 287 288 287 286 285 285 285
Wind_Speed
17 19 19 20 20 21 22 22 22 21 23 10 8 7 4 4 3 3 7 9 6 4 2 3 3 3 3 3 4 3 3 3 4 6 1 4 1 4 4 4 4 3 3 7 6 8 6 9 6 10 9 9 7 6 6 7 6 4 4 5 4 3 5 7 10 9 11 9 4 7 9 9 10 11 11 10 11 11 12 12 11 11 11 10 11 15 13
16 17 19 20 21 21 21 22 21 21 19 9 9 6 4 4 3 0 4 10 5 3 4 4 3 4 2 0 1 3 2 3 6 3 3 2 2 4 1 3 4 7 6 6 7 6 5 2 9 7 7 9 4 3 5 4 5 3 1 4 5 5 3 5 9 8 6 1 5 4 4 7 8 8 8 11 13 14 14 14 12 13 15 15 12 13 11
16 17 18 19 20 20 19 21 21 20 19 13 5 6 4 4 3 3 2 8 7 4 4 4 2 4 4 2 2 4 2 1 4 7 6 3 4 4 1 1 6 7 5 6 10 7 7 6 9 8 10 9 9 8 5 4 8 7 2 4 2 5 6 5 8 9 9 7 6 5 2 5 7 9 12 12 13 14 12 11 10 13 15 17 14 14 16
15 16 16 18 18 18 18 18 20 21 19 15 6 4 5 5 3 3 1 4 4 6 4 5 3 2 5 1 2 3 5 1 2 5 6 3 4 5 5 0 2 4 4 5 6 4 7 8 6 7 9 11 7 7 10 10 9 7 5 8 4 4 6 7 7 8 9 10 10 9 9 9 11 12 14 14 14 15 14 12 13 14 12 14 18 19 19
15 15 16 16 17 17 17 18 20 22 21 14 5 3 2 3 3 4 6 5 4 5 4 6 5 2 4 2 6 5 6 6 1 3 3 3 2 4 6 3 1 2 3 4 6 4 8 10 12 11 12 11 12 13 13 11 7 6 7 9 6 5 8 9 11 14 14 14 14 13 11 14 16 18 18 17 17 16 16 14 15 13 13 17 16 18 18
14 15 15 16 16 17 16 18 19 22 23 17 5 3 4 2 2 1 3 3 4 5 3 8 4 1 2 1 3 6 7 7 5 4 2 4 6 4 2 4 2 2 2 5 5 7 9 8 5 9 9 12 13 13 7 6 3 10 8 8 7 8 10 12 11 15 16 17 15 13 12 12 13 16 19 21 20 19 19 19 19 18 15 18 15 15 19
13 14 15 15 16 16 16 19 18 21 24 18 6 5 3 1 1 1 1 3 3 3 5 7 5 4 1 2 2 4 8 8 5 3 5 6 2 5 2 2 3 3 2 2 6 6 11 6 9 10 13 14 14 10 10 3 5 8 7 7 6 6 9 13 12 17 17 17 16 16 17 14 15 18 19 20 21 21 22 22 21 22 23 23 21 22 24
12 13 14 14 15 16 16 18 16 19 25 14 2 6 4 4 5 2 1 4 4 2 3 3 4 2 1 2 3 5 6 6 8 4 3 3 4 3 6 6 7 9 10 4 7 7 6 9 13 13 15 17 7 8 8 8 3 3 7 7 6 6 7 5 1 8 16 12 11 12 16 18 19 21 20 21 21 21 21 21 22 23 24 25 25 24 25
11 12 13 13 13 14 15 16 14 16 20 5 5 5 5 2 2 2 5 3 1 3 3 3 4 2 1 4 4 6 4 7 8 11 8 10 7 3 8 10 11 9 8 6 12 14 15 14 17 18 15 15 10 6 6 8 9 8 7 6 6 7 12 12 10 12 14 5 6 8 10 16 17 20 19 18 17 17 16 17 18 18 22 22 21 20 20
10 11 12 12 12 12 14 13 12 14 16 5 4 4 2 1 3 1 3 2 2 3 1 3 5 1 5 3 6 4 7 7 7 7 1 3 7 8 9 10 9 10 10 10 9 10 13 16 18 16 15 15 16 13 15 14 12 11 11 9 10 6 6 7 9 11 15 10 3 2 4 9 12 11 9 10 13 15 18 19 19 20 20 19 17 20 19
10 11 11 11 11 11 12 10 8 12 10 7 5 4 4 4 3 3 2 5 2 1 5 1 3 2 5 2 7 6 8 7 5 6 2 3 5 4 6 9 8 9 12 12 12 14 18 19 20 16 16 17 16 13 13 17 15 13 11 9 8 9 10 10 5 5 13 12 5 2 4 7 4 2 7 10 13 15 17 17 17 18 16 16 16 19 19
8 9 10 10 11 10 11 8 7 6 9 6 4 3 3 3 3 3 4 4 2 1 3 2 5 3 5 7 7 9 10 10 9 6 12 10 12 11 12 11 8 7 4 12 16 17 21 20 19 14 13 13 13 13 14 15 13 10 6 10 8 11 11 10 5 4 10 14 12 7 6 5 2 2 5 8 9 11 13 17 18 17 17 19 22 23 23
8 8 9 9 10 9 9 7 6 6 6 6 4 4 3 3 2 3 3 4 5 5 6 4 2 4 6 8 9 8 9 11 11 11 12 13 14 10 8 7 9 12 14 17 18 18 14 11 10 6 11 8 7 8 11 12 9 5 7 8 9 7 8 7 4 5 9 9 6 5 5 3 2 0 4 6 8 6 9 13 13 14 14 17 18 19 21
8 7 7 8 9 9 8 6 4 5 4 5 4 4 3 3 3 2 3 4 6 4 5 6 3 3 8 10 9 10 9 9 9 10 10 6 9 10 8 8 10 11 12 13 15 11 8 6 6 4 1 5 7 5 2 1 2 2 4 11 10 9 9 4 6 3 5 8 10 9 14 4 2 2 3 3 5 5 5 8 8 3 8 12 14 17 18
8 8 8 8 8 8 7 6 3 2 3 2 3 3 3 2 1 2 2 4 6 8 5 2 7 8 8 9 8 9 7 6 8 5 7 6 8 7 8 9 9 11 10 10 7 6 5 6 5 5 4 5 4 4 3 3 2 3 4 7 10 8 7 2 2 2 4 9 10 10 7 9 8 6 5 5 9 9 11 6 12 3 7 9 14 17 16
8 8 7 7 7 7 7 6 4 0 0 2 2 3 2 1 2 2 2 3 5 5 3 5 4 6 8 8 7 9 8 8 7 9 6 4 5 7 6 7 9 9 8 7 6 5 4 4 5 4 4 5 6 5 5 6 5 5 4 6 8 8 7 7 5 5 6 9 8 7 7 5 5 13 16 17 16 12 9 3 9 3 7 10 10 11 12
9 9 8 7 7 7 6 5 5 4 2 3 2 2 2 3 2 2 3 3 4 7 8 10 6 5 7 5 5 6 7 6 7 6 5 5 8 11 9 9 7 7 6 7 5 5 3 3 5 4 1 5 6 6 8 5 8 8 7 2 6 4 3 4 5 5 6 10 8 8 3 4 11 18 21 22 19 14 4 4 4 2 8 11 11 13 15
9 9 9 8 7 6 7 6 6 5 3 4 2 2 3 2 3 3 3 4 5 7 4 3 5 7 6 6 8 7 7 6 6 6 7 10 9 6 9 9 5 2 5 5 4 3 2 2 4 4 4 4 5 6 5 7 7 8 10 11 6 5 7 4 8 8 11 11 9 7 3 4 10 18 25 22 19 10 8 15 15 20 17 10 7 13 14
10 10 9 8 7 7 7 7 6 7 3 4 3 3 2 3 3 4 3 4 4 6 2 5 6 8 8 6 8 8 6 5 6 7 7 6 3 7 12 5 3 2 3 4 5 2 3 1 2 4 4 4 4 5 7 6 7 7 9 10 8 6 7 4 7 10 13 11 12 9 6 2 10 17 22 14 13 9 18 13 14 17 20 17 13 12 11
11 10 9 9 8 6 7 7 8 7 3 6 3 3 3 3 4 5 4 5 4 10 11 12 9 11 6 8 8 7 6 6 6 7 8 8 7 12 7 5 4 4 4 4 2 2 3 3 4 3 3 6 5 6 6 6 4 6 8 8 4 5 7 8 10 9 8 8 11 10 11 6 21 22 17 8 11 10 10 15 16 17 17 17 16 14 14
11 11 10 9 9 9 7 7 8 7 5 8 5 3 4 2 4 6 6 6 5 9 7 3 2 7 9 12 12 12 11 10 8 7 7 9 7 5 4 4 6 4 2 4 4 3 2 4 5 3 3 5 6 6 6 8 5 5 4 7 4 5 5 5 7 5 7 9 8 6 8 14 14 13 9 14 14 14 15 17 15 15 14 16 15 14 14
11 10 11 11 11 10 9 9 8 8 5 8 6 3 4 2 4 4 5 5 7 8 7 11 13 16 16 16 15 13 14 14 14 11 10 9 6 6 6 7 6 4 3 3 4 1 2 4 4 3 5 5 4 5 8 6 5 5 4 7 3 7 3 3 10 7 2 5 7 11 14 14 15 14 15 17 19 17 18 17 15 15 15 16 14 16 17
12 12 12 12 12 11 10 9 8 7 6 9 7 4 5 4 3 4 5 6 7 9 11 15 13 14 14 17 17 14 14 12 13 11 10 9 7 6 6 4 2 1 3 2 4 4 4 4 3 5 5 4 5 7 7 5 5 6 7 6 4 6 5 9 8 7 12 9 11 12 13 17 19 17 14 16 20 18 16 16 15 15 15 14 15 16 17
12 12 13 13 12 12 11 10 10 8 7 8 9 5 5 3 4 4 5 5 5 7 7 7 5 4 3 3 3 6 9 11 13 12 9 9 8 4 5 6 2 2 3 4 3 5 4 4 4 4 5 5 7 5 6 6 5 8 9 5 6 5 10 10 8 13 13 6 13 16 19 20 20 18 18 17 17 18 17 15 15 17 17 17 16 16 17
13 13 14 13 13 13 12 11 10 9 8 8 9 7 5 4 4 4 4 3 3 3 7 6 8 10 7 3 4 7 8 8 8 10 11 12 13 9 4 7 2 5 5 2 1 5 3 4 5 4 6 5 5 5 3 6 5 7 8 6 7 5 12 10 11 13 8 11 15 16 19 21 16 12 17 21 23 23 22 16 17 17 16 16 17 15 14
14 13 13 13 14 14 13 12 11 9 7 8 9 7 6 5 3 4 5 5 6 4 6 5 6 5 6 10 11 9 7 6 8 11 12 13 14 13 11 5 4 2 3 4 5 5 4 5 4 5 6 3 2 6 6 6 9 8 7 4 3 8 10 6 12 10 12 11 10 18 20 14 13 18 18 19 20 20 20 21 23 22 20 19 19 17 16
14 14 14 13 14 14 14 13 12 9 8 8 8 8 7 6 5 7 6 5 4 5 6 7 7 9 8 15 15 9 6 7 8 10 11 14 14 13 11 11 10 8 7 6 5 4 4 6 6 7 6 5 5 8 9 9 7 5 5 4 9 7 6 8 9 9 11 12 17 20 16 13 18 21 22 23 23 21 20 20 23 23 22 19 19 18 17
14 14 14 14 15 16 15 14 12 9 9 9 8 8 7 7 7 8 9 8 7 6 8 9 10 12 16 18 8 4 5 6 7 9 10 12 14 12 12 12 10 9 7 6 5 5 5 6 7 3 5 7 7 6 6 7 6 5 2 6 6 4 5 6 5 6 10 16 17 16 14 17 18 19 23 24 21 21 22 21 21 20 21 19 18 18 18
15 14 15 17 16 16 15 13 12 9 8 7 6 6 8 9 9 8 9 8 9 9 7 9 10 10 5 6 9 8 5 6 7 9 9 10 12 12 11 11 10 9 7 6 6 6 7 7 5 6 5 1 3 6 6 6 5 2 5 6 6 6 6 7 8 11 13 13 15 16 15 17 21 23 22 22 20 21 24 21 20 19 17 19 17 17 14
15 15 16 17 18 18 17 14 12 9 8 6 4 3 5 2 2 2 4 7 7 4 3 4 7 2 7 6 5 3 5 6 8 9 10 9 10 10 10 10 10 9 8 6 5 6 5 6 5 7 8 5 5 3 5 6 6 4 7 9 9 8 8 8 9 10 11 15 16 17 18 21 18 17 19 17 19 21 19 20 17 20 20 20 17 17 14
16 16 18 19 18 17 16 15 12 9 9 6 3 2 2 2 3 0 3 5 5 4 1 2 7 7 7 5 6 8 8 7 6 7 9 9 8 9 8 8 8 8 7 7 6 7 4 4 2 5 6 8 5 4 6 7 6 1 10 11 10 10 10 11 10 11 12 13 16 18 17 13 14 18 14 17 22 21 19 19 23 21 21 20 15 14 15
17 16 16 16 15 14 13 13 13 10 8 8 8 4 1 2 4 5 6 4 5 3 2 5 6 3 4 4 3 5 8 8 6 4 4 5 6 7 7 8 6 8 7 5 5 4 7 6 6 6 7 6 7 6 7 5 3 6 12 11 10 10 11 12 12 12 10 12 17 19 15 14 14 16 19 24 22 20 19 20 19 19 18 15 16 15 17
15 14 15 15 14 16 16 14 13 10 7 5 6 7 1 4 9 8 7 6 4 4 2 3 5 4 4 4 8 3 2 6 5 5 4 6 4 6 6 7 6 6 7 5 5 3 3 4 3 6 4 3 3 2 2 3 4 8 10 10 11 11 12 12 11 9 11 12 13 13 16 19 21 22 20 20 19 19 20 20 19 18 17 18 20 21 21
14 15 15 15 15 17 16 15 11 9 6 4 7 7 6 9 10 11 7 4 2 1 1 2 3 4 6 5 7 3 3 4 2 3 1 6 4 6 3 6 6 3 7 8 3 4 4 3 5 4 2 2 2 2 0 2 8 10 10 10 11 13 12 12 9 10 14 14 13 13 15 16 17 17 17 18 20 19 18 17 19 22 21 19 19 19 19
15 15 15 14 15 14 13 13 7 7 6 6 6 2 3 11 12 12 11 6 3 3 2 3 3 5 6 3 4 2 3 4 1 3 2 4 5 4 5 3 4 3 3 6 4 5 4 5 2 3 1 1 1 3 2 9 11 11 11 11 12 13 14 13 9 13 15 15 15 14 14 16 18 18 19 20 19 20 22 20 21 21 20 19 19 19 19
15 14 13 13 13 11 6 8 5 5 5 6 3 4 5 5 9 9 10 9 5 2 3 2 2 5 3 5 3 2 5 5 3 3 2 2 4 4 4 3 5 4 5 4 3 3 4 1 1 1 2 1 3 2 5 8 11 11 11 11 11 11 12 14 16 18 17 16 15 13 15 16 17 18 18 18 18 20 21 21 22 21 20 19 21 20 18
14 13 14 15 10 6 6 4 3 5 3 2 3 5 6 6 3 3 5 6 4 1 4 2 5 7 6 5 3 2 4 2 2 4 2 1 3 0 3 3 3 2 2 4 5 6 1 1 1 2 2 2 3 4 6 6 8 9 10 10 10 11 12 12 14 17 19 17 14 12 15 17 18 17 18 19 20 20 21 22 22 22 22 22 20 19 19
14 15 11 7 5 3 1 4 4 4 10 9 11 6 3 1 1 1 1 2 2 4 5 4 9 8 5 5 6 1 3 2 3 2 1 1 3 1 1 3 0 1 5 5 1 3 2 1 2 3 4 4 4 5 6 6 6 6 8 9 10 11 11 12 14 15 18 20 20 22 22 21 19 19 20 21 21 21 18 17 17 17 17 18 17 17 18
17 10 6 4 3 3 3 3 7 12 8 4 2 1 1 1 1 2 3 2 2 5 4 6 9 8 9 9 9 5 5 4 5 2 3 3 2 1 0 3 1 2 3 4 2 3 4 3 3 3 4 3 3 6 5 5 6 6 7 8 9 10 11 11 12 13 13 12 13 15 15 15 18 19 18 18 18 18 17 17 17 17 18 18 19 18 18
10 9 6 5 3 2 4 8 13 9 4 3 1 0 2 2 4 3 3 3 4 3 4 7 7 8 10 10 7 3 6 5 3 3 4 3 2 3 1 3 1 2 4 6 1 3 4 4 3 4 5 3 4 5 5 6 6 7 7 8 10 10 11 11 11 11 12 12 12 12 13 14 15 16 16 17 17 18 18 17 17 18 19 18 18 17 17
6 5 5 5 5 5 4 6 4 1 2 2 2 1 2 3 3 1 2 5 5 3 5 6 4 5 8 9 9 7 4 2 3 3 2 3 1 2 2 2 1 3 4 4 2 1 2 2 3 1 4 3 4 5 6 6 7 8 8 8 10 10 11 11 12 12 13 13 12 12 13 14 15 15 15 16 16 16 16 16 16 17 19 19 19 19 17
5 5 6 8 6 5 5 2 1 2 1 1 2 4 4 2 2 3 4 5 5 3 6 7 7 8 7 10 7 5 3 2 2 2 2 3 1 2 3 2 1 2 3 2 1 2 2 5 2 4 3 3 4 5 7 7 8 8 9 9 10 11 12 12 13 12 12 13 12 13 13 14 15 14 14 15 15 15 16 15 17 18 18 17 16 15 16
23 15 9 7 4 3 2 2 2 1 3 3 3 3 4 4 6 5 4 4 2 3 2 5 2 3 3 3 4 5 1 2 2 2 2 2 1 1 2 2 1 5 3 1 2 3 6 6 1 4 2 3 4 6 7 7 7 7 8 8 9 9 11 12 13 13 13 13 13 13 13 14 14 14 14 14 15 16 15 14 15 15 16 16 15 15 15
7 5 5 1 3 1 2 3 2 2 4 4 6 7 7 5 6 5 5 4 5 5 6 7 7 8 5 6 4 3 2 3 2 2 3 1 1 2 1 3 4 1 1 4 3 6 3 3 4 4 3 2 3 5 6 7 8 8 8 9 9 10 11 11 12 12 12 11 12 13 13 13 14 14 14 14 15 16 16 15 15 16 16 16 15 15 15
5 2 2 2 3 3 3 3 2 4 7 8 5 7 7 6 6 9 6 3 5 3 8 5 5 7 4 5 1 2 2 0 3 3 2 1 3 3 3 5 3 2 4 6 4 2 2 3 4 2 3 4 5 6 6 7 8 8 9 10 10 11 12 12 13 12 12 13 14 13 13 13 14 14 14 14 14 14 15 15 16 16 16 15 14 14 15
2 4 5 5 4 4 4 3 5 6 4 5 7 7 8 5 2 6 3 3 4 4 6 6 4 4 3 3 2 0 2 2 2 3 2 3 4 5 3 2 2 6 4 5 5 6 1 5 3 2 3 4 5 6 6 6 7 7 9 10 10 11 12 13 13 13 12 13 13 13 13 13 14 14 14 14 13 14 14 14 15 15 15 14 14 14 15
3 0 1 1 2 4 3 6 7 4 3 5 6 5 6 7 4 1 4 4 4 3 4 2 2 2 3 3 3 2 2 2 3 1 1 4 4 3 1 3 5 4 5 6 6 2 4 3 2 1 2 4 5 5 6 6 7 8 9 9 10 11 12 12 13 13 13 14 13 13 12 13 14 13 13 13 13 13 14 14 15 15 14 14 14 13 13
4 1 2 3 4 5 9 5 2 2 1 2 4 6 5 2 4 5 4 3 2 4 5 5 4 4 3 1 2 4 2 1 3 4 2 3 2 3 3 4 5 2 2 4 3 3 3 3 1 2 3 4 5 6 6 7 8 9 9 9 10 11 11 12 13 13 14 14 13 12 12 13 13 13 13 14 14 13 13 13 14 14 14 14 13 14 14
1 3 4 3 1 3 3 5 6 5 5 4 2 4 5 6 6 4 5 4 5 5 3 4 1 2 3 2 2 2 3 2 3 2 1 2 3 3 2 3 3 5 2 1 1 2 2 1 0 2 3 4 5 6 6 7 8 8 9 9 9 10 10 11 12 13 13 12 12 12 13 12 11 12 13 14 14 13 12 12 13 13 13 13 13 13 14
2 1 0 2 2 2 3 4 6 7 5 5 5 5 6 7 6 5 5 6 4 5 4 2 0 2 1 1 3 1 2 2 2 1 3 5 4 3 3 6 5 5 1 2 1 1 1 1 2 3 4 5 5 6 6 7 7 8 8 8 8 9 10 11 12 12 12 12 12 12 13 12 11 11 12 13 13 13 12 11 12 13 13 12 13 13 13
1 1 2 2 2 2 7 7 11 10 8 8 8 7 8 7 7 7 5 4 6 4 3 4 2 2 2 2 2 3 1 0 2 5 4 4 1 3 4 5 4 1 1 2 1 1 2 2 3 4 4 4 5 6 5 6 7 7 7 8 8 9 10 10 11 11 12 12 12 12 12 12 11 12 11 11 12 12 12 11 11 12 13 12 12 12 12
3 4 3 4 3 3 5 2 2 5 6 8 8 7 7 8 7 6 4 5 6 5 5 2 2 2 1 4 3 0 1 2 3 2 4 3 2 4 4 4 3 1 1 2 2 1 2 3 3 3 3 4 5 5 6 7 7 7 7 8 8 9 10 10 10 11 11 11 11 11 11 12 12 11 10 11 11 11 11 11 12 13 12 11 12 12 11
Wind_Direction
352 350 349 348 351 353 351 351 351 352 347 350 355 306 303 1 12 75 341 337 332 279 109 122 57 43 29 308 208 270 242 276 305 299 335 309 216 259 257 316 310 294 355 319 320 349 295 289 305 318 312 312 314 2 333 340 314 266 266 271 229 130 257 264 275 276 267 245 261 220 227 245 252 245 251 252 251 257 265 263 273 272 266 255 251 250 258
351 351 349 347 350 352 350 350 351 349 360 342 314 308 349 312 315 143 12 342 294 334 40 14 30 37 25 318 119 191 300 312 328 314 319 310 310 295 288 270 238 296 310 301 301 342 318 268 317 317 336 312 11 311 305 311 308 267 8 283 111 255 188 275 304 308 315 177 158 166 207 240 247 256 247 248 253 258 262 274 273 264 256 256 256 258 255
349 351 349 348 349 350 348 350 349 348 352 347 318 339 327 285 206 239 13 19 16 58 15 16 2 21 2 323 23 359 224 236 325 307 295 276 267 265 308 208 318 288 300 296 289 269 246 294 300 304 293 293 311 310 303 286 290 266 261 305 294 258 290 295 305 319 314 311 310 325 306 267 279 266 260 254 258 255 256 247 246 251 253 255 253 256 254
348 351 348 349 350 348 349 349 348 346 351 345 297 318 291 4 341 12 82 45 72 100 84 40 1 9 2 302 20 297 340 91 330 312 290 279 254 262 273 187 299 281 345 311 304 287 251 266 305 307 300 315 314 313 295 289 274 268 215 232 256 280 285 273 273 281 288 298 304 306 297 283 276 274 270 267 252 250 253 263 258 254 263 255 248 252 265
347 349 346 348 351 347 350 352 347 346 344 350 310 290 344 295 4 345 346 316 94 68 46 27 15 23 335 323 5 334 346 331 334 105 292 128 336 298 252 234 226 313 289 330 306 250 256 264 283 277 296 310 307 311 308 303 256 228 214 217 252 255 273 265 258 253 255 270 276 283 290 282 280 281 276 270 263 255 249 243 249 257 267 259 253 258 261
343 346 345 347 350 349 351 354 350 344 341 334 290 328 356 321 96 336 50 304 354 347 39 7 355 69 285 354 333 320 331 348 358 331 240 306 290 270 162 214 226 53 19 303 290 310 297 289 271 306 302 310 323 321 314 266 169 182 212 206 233 275 280 284 283 268 264 264 264 265 266 260 263 272 275 276 272 263 254 248 250 251 251 260 267 262 260
341 342 344 346 350 349 351 355 351 345 338 329 305 332 72 41 40 143 19 278 16 340 332 317 307 297 260 287 243 313 329 338 6 329 310 296 253 218 269 264 208 207 270 248 282 294 320 315 305 311 319 322 324 317 320 124 142 199 237 243 238 279 272 281 278 279 274 269 269 266 258 255 257 259 262 266 269 266 263 258 252 248 251 256 263 265 264
336 339 342 346 349 349 353 355 353 347 336 318 20 31 337 35 339 17 271 266 286 293 303 306 287 293 130 300 44 329 316 313 326 319 280 294 278 196 248 262 295 297 292 262 246 232 255 279 289 302 312 308 301 304 292 301 261 261 261 256 245 239 281 321 275 279 275 272 260 247 249 255 260 261 263 268 271 271 263 261 257 256 258 256 257 261 265
329 334 339 345 347 351 354 358 358 346 336 13 30 65 30 53 24 323 314 286 164 236 261 292 318 295 96 318 13 312 322 314 332 304 276 249 261 264 298 313 305 290 278 242 244 248 255 274 276 288 290 281 286 299 279 312 305 286 287 273 273 236 272 290 287 285 281 258 260 254 248 257 259 266 271 271 269 267 262 255 252 248 251 253 255 258 257
319 328 335 341 347 351 358 6 360 349 329 360 351 49 19 200 127 277 319 282 113 296 338 269 269 9 27 342 329 316 319 319 326 319 268 252 254 275 291 302 301 291 276 264 279 302 296 289 285 280 275 268 270 260 264 272 276 282 280 282 279 270 285 288 286 289 279 306 308 256 265 262 261 262 287 287 274 270 277 277 268 253 252 256 251 249 256
313 322 332 337 343 350 1 16 12 353 359 26 18 39 19 14 356 311 267 291 190 307 327 292 302 65 326 298 304 303 293 297 290 292 289 269 273 279 294 294 294 296 291 306 318 306 296 289 282 274 265 261 258 258 256 256 250 252 264 276 277 281 270 273 288 277 294 306 307 283 255 280 294 104 317 308 289 288 287 282 278 269 253 254 255 261 267
302 314 325 333 339 347 360 20 24 9 357 27 7 36 29 336 294 278 304 305 330 140 305 348 342 342 297 319 305 303 305 305 297 272 272 279 283 287 283 276 264 269 319 322 313 306 296 278 258 249 253 253 251 245 244 252 256 240 233 240 254 266 278 280 286 267 291 307 306 286 273 292 124 314 299 289 291 290 282 285 286 284 276 268 265 264 264
293 303 318 325 333 341 354 24 23 27 348 8 4 21 29 336 315 342 322 302 298 329 324 340 345 285 297 300 301 291 294 291 285 274 265 271 284 281 260 262 261 274 312 311 312 306 303 304 305 243 233 219 223 219 230 239 256 260 199 201 224 265 271 289 268 269 281 297 319 303 323 159 305 50 295 292 269 264 284 278 261 270 279 284 281 279 278
288 293 307 315 322 331 341 8 19 24 4 343 12 9 357 329 321 313 335 312 296 322 326 280 216 310 330 319 308 300 289 280 282 276 272 261 273 281 276 255 266 293 301 310 301 293 299 323 327 318 261 210 198 203 191 330 313 304 197 193 212 240 277 273 292 267 288 309 306 293 293 286 162 297 289 265 279 294 296 298 285 248 295 305 298 294 291
277 285 297 306 310 317 326 338 5 28 36 326 359 353 341 325 249 321 319 280 292 300 264 316 349 332 316 311 323 320 319 325 310 300 279 257 256 259 276 285 294 295 297 299 298 299 302 305 319 334 359 359 359 333 324 32 102 293 274 202 198 210 234 272 277 289 282 303 316 321 338 355 10 20 308 233 250 248 251 254 279 207 239 245 260 265 274
272 271 279 291 298 305 311 322 321 319 52 250 307 354 332 312 304 268 276 295 310 309 89 22 354 316 312 313 331 331 324 317 327 307 283 210 258 297 293 303 300 287 278 266 266 296 307 313 315 327 345 349 322 299 327 336 346 324 223 215 193 212 240 270 265 284 297 308 316 316 319 2 21 352 341 333 326 290 257 225 268 159 216 240 260 267 261
274 275 270 275 286 292 300 304 306 298 298 257 323 341 338 139 233 284 281 255 228 254 303 309 309 282 288 305 318 319 342 322 336 336 325 321 328 313 307 327 294 245 273 282 280 291 312 307 311 315 358 7 339 342 295 344 337 332 349 243 219 250 276 260 268 277 322 327 319 332 314 335 6 344 338 336 318 328 138 294 329 165 225 229 222 237 248
262 264 264 265 266 273 287 290 296 297 294 179 261 318 306 205 233 249 234 248 279 282 270 285 317 310 316 336 306 312 299 283 283 291 268 293 296 308 334 331 325 245 262 288 292 288 302 346 354 344 334 23 324 304 346 334 325 340 340 344 356 359 340 308 333 339 333 326 329 322 355 74 1 342 338 335 323 305 325 347 322 321 320 313 245 241 252
257 258 258 251 250 260 272 283 288 292 286 197 231 276 262 198 210 216 261 271 254 259 288 300 289 272 282 291 270 288 286 289 301 301 302 310 14 336 296 310 329 327 323 327 295 329 312 32 304 2 318 351 339 355 323 323 338 336 336 350 339 360 337 312 348 352 340 339 338 340 344 110 327 352 339 328 327 351 335 309 301 311 330 332 338 328 316
254 257 256 253 254 245 253 271 279 288 237 177 206 298 302 187 195 207 235 263 261 271 282 279 269 272 285 283 287 286 292 262 252 279 311 304 355 337 291 197 162 275 301 328 257 23 321 7 5 306 322 338 13 332 295 349 327 334 346 344 329 10 325 343 3 341 323 346 340 349 350 358 359 349 333 12 349 325 309 317 321 336 336 338 335 325 316
248 253 252 250 245 247 253 260 267 281 208 186 210 286 318 189 212 223 234 247 279 296 292 215 255 278 286 277 272 273 267 264 281 298 309 308 332 320 330 23 349 341 344 354 336 11 339 336 356 342 329 299 346 303 344 326 313 101 318 342 345 20 318 351 343 3 325 343 344 343 324 324 348 355 323 320 321 323 332 332 326 337 335 331 333 327 327
235 235 240 242 242 243 247 252 260 276 238 187 194 243 289 292 224 222 233 228 241 239 263 298 299 286 279 271 267 260 258 261 261 272 287 291 292 287 297 298 301 298 349 322 276 276 341 351 298 320 321 324 311 316 332 315 329 356 347 332 314 25 8 354 323 317 5 304 296 289 309 332 334 331 322 317 326 336 343 325 329 332 331 331 331 327 329
229 233 236 238 239 238 237 240 251 260 237 193 199 236 268 306 267 230 231 255 251 259 272 278 281 276 264 256 250 247 245 243 254 256 253 262 277 261 262 274 273 33 284 257 328 328 331 315 321 334 311 323 340 315 305 308 305 349 338 25 347 18 11 324 294 336 325 280 245 279 324 331 323 323 319 326 328 343 328 330 334 331 323 323 322 320 322
228 229 233 235 236 234 232 235 241 250 254 208 204 236 253 257 289 271 259 252 273 300 277 237 293 293 298 307 138 191 212 223 226 235 237 237 250 264 226 230 283 262 241 264 318 311 339 309 300 316 297 312 317 301 321 331 324 348 325 331 359 9 6 331 344 341 337 346 343 346 338 327 321 322 327 330 334 336 337 337 333 324 319 321 324 327 326
226 224 228 230 232 232 230 231 236 246 249 233 218 233 250 255 237 239 255 285 294 313 298 306 279 267 287 283 273 253 236 234 228 224 224 220 230 245 321 36 278 303 344 360 276 269 268 290 289 278 293 313 306 298 341 300 300 358 320 337 354 340 351 317 357 335 329 325 333 345 336 314 307 327 337 338 338 336 333 334 329 321 318 327 324 330 329
224 224 222 223 227 229 227 225 229 236 240 229 223 229 231 254 233 213 251 265 266 268 282 288 293 309 289 285 275 285 290 249 227 220 220 223 224 236 259 247 242 206 276 286 289 285 286 274 273 283 290 289 271 294 299 338 305 304 300 10 26 309 316 351 332 312 314 316 339 342 325 292 311 332 339 339 336 335 332 334 330 329 331 335 335 337 337
223 222 221 218 221 225 225 223 223 227 228 229 228 237 245 257 226 219 228 248 301 279 218 257 277 281 295 297 297 292 234 223 220 222 219 217 221 226 234 250 259 258 257 257 256 280 272 263 268 273 275 291 321 286 295 288 295 302 304 30 358 338 347 334 322 330 330 343 335 342 342 327 321 320 332 333 335 337 338 330 326 334 334 335 334 333 336
223 222 220 218 221 223 223 222 222 219 226 236 240 247 252 252 242 233 225 222 215 260 301 299 305 303 309 276 273 253 242 230 226 224 223 219 218 220 228 236 241 249 248 252 258 231 237 256 264 263 271 286 284 266 245 267 279 274 59 31 18 8 343 339 331 318 307 315 323 330 319 304 301 315 324 331 337 337 336 332 340 336 332 330 327 329 332
223 221 221 223 220 219 218 216 214 212 215 228 247 259 262 254 264 245 235 224 230 251 269 281 283 284 296 351 318 283 239 219 227 230 231 229 218 216 219 229 233 234 238 243 255 277 271 269 284 277 274 332 268 280 286 282 275 307 82 29 26 14 348 331 317 307 293 305 317 321 316 308 307 314 320 326 336 337 332 333 337 334 327 322 321 330 328
221 220 219 220 220 217 214 210 206 208 205 218 225 268 290 272 165 234 205 216 216 231 259 300 308 286 322 308 291 290 269 240 242 235 236 231 221 213 212 219 228 227 230 230 231 248 256 266 268 258 253 245 254 296 281 287 302 72 38 13 4 347 338 330 324 317 309 313 313 315 313 305 307 314 317 325 339 335 330 328 333 326 327 329 324 325 331
219 219 221 221 220 217 213 207 204 194 193 207 175 239 263 262 121 186 170 201 199 201 252 231 259 301 294 244 262 280 293 289 272 252 230 225 226 216 208 215 224 212 221 226 232 251 280 263 238 235 221 199 226 260 286 296 302 177 23 357 350 336 335 329 325 318 314 317 317 314 310 310 320 322 323 335 335 338 337 330 330 335 330 322 326 328 339
220 217 219 222 219 211 207 203 204 192 206 202 189 188 222 23 117 142 144 167 159 220 242 291 296 274 295 290 262 288 290 290 277 234 207 191 201 197 195 201 219 207 220 227 234 252 242 249 261 275 286 167 178 278 275 301 345 343 342 340 340 335 333 328 326 324 328 330 326 323 323 328 335 336 324 329 335 338 340 333 332 333 328 325 339 350 351
220 218 218 217 212 207 202 199 197 199 219 233 279 306 99 135 135 141 151 141 200 248 239 261 262 298 277 301 312 279 297 275 215 235 184 176 170 166 186 192 211 215 190 229 219 243 217 219 233 255 256 180 209 270 8 66 6 335 331 331 331 335 331 330 324 328 338 334 334 329 322 323 325 327 325 327 335 339 342 341 337 333 338 345 353 354 352
213 215 216 212 206 203 198 195 193 206 234 251 242 230 224 173 165 166 158 180 245 246 214 255 270 266 277 306 277 108 359 329 305 342 211 158 164 188 162 173 185 209 193 211 217 225 237 239 242 247 175 205 249 295 173 38 357 340 337 335 340 336 335 334 334 337 336 331 329 321 318 319 320 319 327 338 341 342 340 346 349 348 347 350 350 347 344
210 210 212 203 198 194 183 182 188 201 223 229 247 230 156 180 193 178 174 196 204 216 206 232 245 287 302 291 271 114 20 298 311 40 312 134 174 220 153 208 158 237 166 204 253 250 254 245 270 241 213 80 56 41 358 331 336 342 340 341 345 340 340 342 338 336 331 329 327 330 332 332 333 339 342 342 342 344 346 348 354 353 349 347 345 344 344
206 204 200 188 178 165 164 188 206 202 218 218 208 128 148 184 196 201 195 197 228 248 225 231 205 248 277 293 301 46 346 278 255 273 233 306 210 185 231 227 230 200 124 184 246 211 238 89 256 227 82 101 62 24 332 329 330 336 342 343 344 345 338 332 327 329 329 328 330 336 340 342 343 341 340 339 342 345 346 347 350 353 353 347 343 338 341
193 188 171 157 146 140 188 200 154 201 211 111 118 143 154 136 118 181 191 208 219 255 264 273 246 244 240 282 297 284 313 297 16 307 194 221 322 190 218 219 255 109 210 217 225 242 259 91 277 83 42 87 78 20 348 340 335 336 339 338 338 338 337 334 333 330 330 333 338 347 347 344 344 343 341 341 343 345 347 351 351 350 348 344 340 339 337
172 150 140 137 136 152 185 212 203 155 124 131 132 128 137 186 129 140 133 218 206 190 230 229 249 258 255 247 250 60 293 278 358 319 292 61 297 199 182 263 15 249 268 285 334 52 107 158 102 108 100 106 89 27 359 346 339 335 336 338 339 339 340 337 338 341 343 343 346 346 346 346 345 343 340 337 339 343 345 343 342 343 342 341 339 338 334
145 138 132 154 148 178 186 166 130 141 146 143 126 116 168 176 180 202 198 187 191 217 206 216 244 240 235 239 251 259 274 320 306 261 289 53 318 306 338 303 110 264 278 268 166 177 242 151 126 136 133 102 43 15 356 357 341 354 341 344 342 344 342 340 342 345 346 340 330 330 333 333 334 333 333 331 333 336 340 341 341 342 344 341 342 337 338
146 152 155 149 175 132 112 125 137 132 134 142 133 184 204 176 210 207 139 197 216 212 190 230 228 234 224 231 248 229 154 221 261 311 332 307 144 293 8 277 3 281 274 274 94 150 274 260 149 159 137 86 43 13 1 356 355 355 353 349 350 349 348 342 341 340 339 335 335 332 332 333 333 333 333 333 333 335 339 341 340 341 343 342 342 339 342
158 95 121 149 134 127 124 138 128 83 117 132 135 219 218 209 207 227 194 226 229 221 201 230 197 214 215 226 227 244 147 233 291 292 281 274 72 278 265 278 33 283 273 268 102 245 245 257 235 214 95 66 27 7 357 358 360 353 355 350 349 349 347 345 344 342 342 341 341 340 339 337 337 337 336 337 334 334 336 336 337 341 340 342 342 342 342
163 119 111 102 97 101 117 111 140 115 95 199 215 208 198 222 149 210 223 227 214 205 209 199 221 217 210 196 208 233 219 199 289 263 265 269 154 283 306 299 263 267 278 38 24 256 257 265 216 118 96 47 16 360 355 351 353 348 348 347 346 348 345 344 343 345 344 344 343 341 340 339 339 339 340 338 338 336 337 338 339 341 340 339 337 340 344
101 102 99 99 100 139 167 143 196 199 170 170 185 227 186 211 204 206 208 217 258 252 146 181 238 81 60 181 197 218 276 108 238 207 228 275 113 226 274 283 264 256 275 26 268 281 264 273 72 100 93 34 5 355 355 349 343 340 340 340 341 341 341 341 342 341 343 345 345 343 343 342 342 340 340 339 340 338 340 341 343 340 339 338 339 342 345
96 66 76 82 114 154 195 195 161 166 212 200 184 203 179 202 201 192 215 203 171 212 180 187 180 203 181 178 224 146 173 196 221 257 251 236 273 269 265 247 255 354 44 261 270 272 302 47 73 95 68 32 359 350 346 340 340 336 338 339 338 339 339 340 339 339 341 343 342 344 343 344 342 342 342 342 343 342 341 342 345 342 339 339 342 344 347
99 82 100 135 133 159 151 195 168 199 216 197 205 222 199 209 202 187 212 144 187 184 161 208 168 201 193 121 225 199 256 223 136 239 247 226 257 272 273 276 310 294 275 278 268 249 186 153 119 98 33 10 356 348 343 339 340 339 335 333 337 339 339 339 340 341 341 342 343 342 343 344 344 344 343 343 344 345 345 345 345 344 345 345 344 345 347
118 155 151 148 164 204 203 195 161 209 224 204 206 207 209 217 188 198 160 138 169 142 179 174 179 193 183 150 270 117 158 210 222 229 242 269 277 272 288 315 274 273 269 255 249 261 343 102 105 56 18 355 344 341 337 335 331 330 329 331 334 335 338 338 338 339 340 340 340 342 342 343 344 344 344 343 344 346 350 348 349 348 347 348 350 348 346
95 118 180 177 160 192 205 210 195 203 169 199 212 202 215 223 231 301 118 176 167 144 111 130 161 226 234 182 202 195 205 219 248 257 247 260 259 277 273 267 264 244 256 260 265 245 133 133 120 68 358 341 333 328 325 326 326 327 330 331 332 334 334 334 336 338 340 339 340 342 342 343 342 344 344 345 345 349 352 353 353 353 353 352 349 348 349
137 150 167 192 201 177 196 218 181 140 196 211 195 204 209 202 184 179 159 167 130 142 158 155 172 175 194 124 271 275 268 217 265 255 243 282 287 271 266 247 246 253 260 276 306 67 105 97 85 11 336 330 320 320 322 327 330 331 331 330 331 331 334 336 339 339 340 339 340 341 341 340 339 341 344 344 343 348 354 357 356 356 357 355 354 354 357
116 161 173 220 210 186 202 178 167 203 186 178 196 189 185 188 202 158 141 154 170 174 157 216 206 202 241 126 246 234 227 185 231 235 164 227 228 241 232 250 259 265 216 271 3 82 71 60 356 305 306 311 325 325 325 324 328 329 329 330 332 332 333 336 337 337 337 337 338 338 339 339 338 340 339 341 343 345 348 356 358 360 359 358 357 356 358
138 192 216 196 166 206 163 173 191 207 176 175 188 195 190 194 189 148 141 163 152 145 143 112 101 259 261 177 234 205 247 235 247 267 247 243 235 252 249 262 253 271 284 113 82 72 21 316 294 291 308 317 324 321 322 323 327 320 326 328 330 330 332 333 334 336 337 337 336 337 335 337 341 342 338 338 336 335 337 351 359 1 3 1 360 356 358
264 255 247 230 244 180 151 182 192 197 187 189 193 188 184 192 180 158 172 160 160 168 186 215 191 204 204 195 220 229 224 115 241 237 249 259 188 218 239 251 286 343 77 75 317 323 320 329 316 313 312 311 317 322 321 320 319 320 322 327 329 330 331 332 333 335 335 335 335 334 335 338 341 337 335 333 333 337 339 345 356 357 1 4 3 358 355
166 194 209 174 185 200 208 290 230 212 197 182 186 179 182 192 165 134 157 181 171 201 208 171 189 188 200 217 232 278 106 220 249 252 247 228 214 247 255 280 327 72 254 277 281 310 308 316 325 309 294 305 312 317 319 319 316 317 323 327 328 328 329 331 333 334 335 335 337 337 334 336 337 336 337 338 339 341 344 342 344 348 354 0 2 358 355